Rexburg, ID

9:40 PM MDT on September 29, 2016 (GMT -0600)
Rexburg-Madison County

Weather History for KRXE - January, 2014

Change the Weather History Date:

Tuesday, January 28, 2014

  Actual Average Record
Temperature  
Mean Temperature 8 °F 20 °F  
Max Temperature 22 °F 29 °F 56 °F (2015)
Min Temperature -7 °F 11 °F -7 °F (2014)
Degree Days  
Heating Degree Days 57 45  
Month to date heating degree days 1266 1260  
Since 1 July heating degree days 4605 4642  
Cooling Degree Days 0 0  
Month to date cooling degree days 0 0  
Year to date cooling degree days 0 0  
Moisture  
Dew Point -1 °F    
Average Humidity 64    
Maximum Humidity 83    
Minimum Humidity 45    
Precipitation  
Precipitation 0.00 in 0.01 in 0.33 in (2013)
Month to date precipitation 0.46 0.68  
Year to date precipitation 0.46 0.68  
Sea Level Pressure  
Sea Level Pressure 30.49 in    
Wind  
Wind Speed 5 mph (NE)    
Max Wind Speed 10 mph    
Max Gust Speed 12 mph    
Visibility 10 miles    
Events      
T = Trace of Precipitation, MM = Missing Value Source: NWS Daily Summary

Daily Weather History Graph

Daily Weather History Graph

Search for Another Location

Airport or City:

Trip Planner

Search our weather history database for the weather conditions in past years. The results will help you decide how hot, cold, wet, or windy it might be!

Date:

Astronomy

Jan. 28, 2014 Rise Set
Actual Time 7:48 AM MST 5:32 PM MST
Civil Twilight 7:17 AM MST 6:03 PM MST
Nautical Twilight 6:42 AM MST 6:38 PM MST
Astronomical Twilight 6:08 AM MST 7:12 PM MST
Moon 5:34 AM MST (1/28) 3:25 PM MST (1/28)
Length of Visible Light 10h 46m
Length of Day
9h 44m
Waning Crescent, 7% of the Moon is Illuminated
Jan 28
Waning Crescent
Jan 30
New
Feb 6
First Quarter
Feb 14
Full
Feb 22
Last Quarter

Hourly Weather History & Observations

Time (MST) Temp. Windchill Dew Point Humidity Pressure Visibility Wind Dir Wind Speed Gust Speed Precip Events Conditions
12:53 AM 6.1 °F -4.3 °F -4.0 °F 63% 30.44 in 10.0 mi NE 5.8 mph - N/A   Clear
1:53 AM -0.0 °F -13.0 °F -8.0 °F 69% 30.45 in 10.0 mi NE 6.9 mph - N/A   Clear
2:53 AM -0.0 °F -11.6 °F -8.0 °F 69% 30.48 in 10.0 mi NE 5.8 mph - N/A   Clear
3:53 AM -0.9 °F -11.0 °F -9.0 °F 69% 30.48 in 10.0 mi East 4.6 mph - N/A   Clear
4:53 AM -2.0 °F -13.9 °F -8.0 °F 76% 30.49 in 10.0 mi ENE 5.8 mph - N/A   Clear
5:53 AM -4.0 °F -20.2 °F -9.9 °F 76% 30.52 in 10.0 mi ENE 9.2 mph - N/A   Clear
6:53 AM -7.1 °F -19.9 °F -11.9 °F 79% 30.54 in 10.0 mi East 5.8 mph - N/A   Clear
7:53 AM -5.1 °F - -11.0 °F 76% 30.57 in 10.0 mi Calm Calm - N/A   Clear
8:53 AM -2.0 °F -10.1 °F -9.9 °F 69% 30.58 in 10.0 mi NNE 3.5 mph - N/A   Clear
9:53 AM 1.0 °F -10.3 °F -9.0 °F 63% 30.58 in 10.0 mi NE 5.8 mph - N/A   Clear
10:53 AM 5.0 °F -2.1 °F -7.1 °F 58% 30.58 in 10.0 mi NNE 3.5 mph - N/A   Clear
11:53 AM 9.0 °F -0.9 °F -4.0 °F 56% 30.56 in 10.0 mi NE 5.8 mph - N/A   Clear
12:53 PM 14.0 °F 5.1 °F -0.9 °F 52% 30.51 in 10.0 mi East 5.8 mph - N/A   Clear
1:53 PM 18.0 °F 6.9 °F -0.0 °F 45% 30.49 in 10.0 mi NE 9.2 mph - N/A   Clear
2:53 PM 19.9 °F 11.1 °F 3.0 °F 48% 30.47 in 10.0 mi ENE 6.9 mph - N/A   Clear
3:53 PM 21.9 °F 14.5 °F 3.9 °F 46% 30.45 in 10.0 mi NE 5.8 mph - N/A   Clear
4:53 PM 19.9 °F 11.1 °F 3.0 °F 48% 30.46 in 10.0 mi ENE 6.9 mph - N/A   Clear
5:53 PM 19.0 °F 12.3 °F 6.1 °F 57% 30.47 in 10.0 mi NE 4.6 mph - N/A   Clear
6:53 PM 18.0 °F 9.8 °F 6.1 °F 60% 30.47 in 10.0 mi ENE 5.8 mph - N/A   Scattered Clouds
7:53 PM 18.0 °F 12.7 °F 8.1 °F 65% 30.47 in 10.0 mi NE 3.5 mph - N/A   Overcast
8:53 PM 18.0 °F 12.7 °F 9.0 °F 68% 30.46 in 10.0 mi NNE 3.5 mph - N/A   Overcast
9:53 PM 18.0 °F - 9.0 °F 68% 30.46 in 10.0 mi Calm Calm - N/A   Overcast
10:53 PM 18.0 °F 9.8 °F 10.0 °F 71% 30.42 in 10.0 mi NNE 5.8 mph - N/A   Overcast
11:53 PM 18.0 °F 9.8 °F 10.0 °F 71% 30.37 in 10.0 mi ENE 5.8 mph - N/A   Overcast